[[{"header":{"parameterUnit":"m.s-1","parameterCategory":1,"la1":30.2992,"la2":30.254,"lo1":-89.0895,"lo2":-89.0443,"dy":0.0025,"dx":0.0025,"nx":19,"ny":19,"refTime":"2026-05-21T03:00:00:Z","depth":0,"parameterNumber":2,"parameterNumberName":"U-component_of_WINDS"},"data":[0,0,0,-2.0921,-2.0923,-2.1053,-2.1053,-2.12,-2.1201,0,0,0,0,0,0,0,0,0,0,0,-2.0872,-2.0873,-2.092,-2.0923,-2.1052,-2.1053,-2.12,-2.1201,0,0,0,0,0,0,0,0,0,0,0,-2.0872,-2.0872,-2.0873,-2.0924,-2.1052,-2.1053,-2.1199,-2.1108,0,0,0,0,0,0,0,0,0,0,-2.0986,-2.0931,-2.0872,-2.0873,-2.0925,-2.1052,-2.1053,-2.1104,-2.1114,-2.1134,0,-2.1149,0,-2.1177,-2.121,-2.121,0,0,0,-2.0931,-2.0922,-2.0967,-2.0873,-2.0926,-2.1052,-2.0996,-2.111,-2.1121,-2.1146,-2.1151,-2.1157,-2.118,-2.1211,-2.1211,-2.1302,-2.1302,0,0,-2.0924,-2.0889,-2.0959,-2.0974,-2.0954,-2.0992,-2.1,-2.1117,-2.1119,-2.1152,-2.1161,-2.1182,-2.1211,-2.1212,-2.1302,-2.1302,0,0,0,-2.0898,-2.0884,-2.0926,-2.0967,-2.0992,-2.0996,-2.1005,-2.1114,-2.1131,-2.1163,-2.1184,-2.1212,-2.1214,-2.1302,-2.1302,-2.1272,0,0,0,-2.0894,-2.0869,-2.0922,-2.0902,-2.0989,-2.1055,-2.1,-2.1123,-2.1137,-2.1183,-2.1212,-2.1215,-2.1302,-2.1302,-2.1273,-2.1264,0,0,0,-2.0867,-2.0866,-2.0881,-2.09,-2.0955,-2.1054,-2.1077,-2.1127,-2.115,-2.121,-2.1215,-2.1302,-2.1302,-2.1274,-2.1265,-2.1278,0,0,0,-2.0828,-2.0852,-2.088,-2.0916,-2.0954,-2.1035,-2.1077,-2.1139,-2.1187,-2.1213,-2.1302,-2.1302,-2.1274,-2.1266,-2.1278,-2.1282,-2.128,0,0,-2.0839,-2.0852,-2.0876,-2.0905,-2.0973,-2.1018,-2.1081,-2.1158,-2.1194,-2.1264,-2.1266,-2.1273,-2.1265,-2.1278,-2.1285,-2.1283,0,0,0,-2.0868,-2.0885,-2.091,-2.0956,-2.1015,-2.1066,-2.1137,-2.1165,-2.1226,-2.1223,-2.1282,-2.1278,-2.1287,-2.1291,-2.129,-2.1299,-2.1302,-2.1302,-2.1302,-2.0835,-2.0882,-2.0924,-2.0987,-2.103,-2.1103,-2.1142,-2.1193,-2.1227,-2.124,-2.1261,-2.1259,-2.1262,-2.1261,-2.1271,-2.1267,-2.1267,-2.1267,-2.1267,-2.0856,-2.0887,-2.0933,-2.099,-2.104,-2.1088,-2.116,-2.1182,-2.1235,-2.1247,-2.1258,-2.1267,-2.1258,-2.1269,-2.1265,-2.1265,-2.1265,-2.1266,-2.1266,-2.0839,-2.0862,-2.0897,-2.0968,-2.1017,-2.1079,-2.1127,-2.117,-2.1211,-2.1221,-2.1248,-2.1248,-2.1254,-2.1231,-2.1231,-2.1231,-2.1231,-2.1231,-2.1231,-2.0807,-2.0848,-2.0884,-2.095,-2.0985,-2.1036,-2.1111,-2.1146,-2.1196,-2.1224,-2.1224,-2.1256,-2.1249,-2.1246,-2.1231,-2.1231,-2.1231,-2.1231,-2.1231,-2.0811,-2.0817,-2.0872,-2.0907,-2.0989,-2.1035,-2.109,-2.1158,-2.1193,-2.1216,-2.1247,-2.1235,-2.125,-2.1252,-2.125,-2.1237,-2.1237,-2.1237,-2.1237,-2.0796,-2.0809,-2.0876,-2.0929,-2.0986,-2.1041,-2.1102,-2.116,-2.1221,-2.1246,-2.1254,-2.1255,-2.1254,-2.1271,-2.1272,-2.127,-2.1263,-2.1263,-2.1263,-2.0801,-2.0821,-2.0865,-2.0925,-2.0992,-2.1049,-2.1107,-2.1166,-2.1237,-2.1265,-2.1266,-2.1265,-2.1267,-2.1265,-2.1293,-2.1293,-2.1291,0,0]},{"header":{"parameterUnit":"m.s-1","parameterCategory":1,"la1":30.2992,"la2":30.254,"lo1":-89.0895,"lo2":-89.0443,"dy":0.0025,"dx":0.0025,"nx":19,"ny":19,"refTime":"2026-05-21T03:00:00:Z","depth":0,"parameterNumber":3,"parameterNumberName":"V-component_of_WINDS"},"data":[0,0,0,5.2147,5.2152,5.2389,5.239,5.2685,5.2688,0,0,0,0,0,0,0,0,0,0,0,5.2074,5.2076,5.2147,5.2153,5.2389,5.239,5.2685,5.2688,0,0,0,0,0,0,0,0,0,0,0,5.2073,5.2075,5.2078,5.2154,5.2389,5.239,5.2684,5.2508,0,0,0,0,0,0,0,0,0,0,5.2279,5.2209,5.2075,5.2078,5.2155,5.2389,5.239,5.2499,5.2519,5.2575,0,5.2625,0,5.2661,5.2707,5.2708,0,0,0,5.2155,5.2192,5.2259,5.2078,5.2157,5.2388,5.2283,5.251,5.2532,5.26,5.2629,5.264,5.2666,5.2709,5.271,5.303,5.3031,0,0,5.2142,5.2114,5.2244,5.2273,5.2238,5.2276,5.229,5.2524,5.2553,5.263,5.2647,5.2671,5.2711,5.2713,5.3029,5.303,0,0,0,5.2103,5.2105,5.2167,5.2261,5.2304,5.2282,5.23,5.2542,5.2565,5.2651,5.2674,5.2712,5.2716,5.3027,5.3029,5.3072,0,0,0,5.2095,5.2083,5.2161,5.2146,5.23,5.2427,5.2313,5.2549,5.2576,5.2673,5.2713,5.2719,5.3026,5.3028,5.3068,5.3097,0,0,0,5.206,5.2078,5.2112,5.2144,5.2245,5.2424,5.246,5.2555,5.259,5.2708,5.272,5.3025,5.3028,5.3064,5.3091,5.3174,0,0,0,5.2013,5.2146,5.2112,5.2269,5.2243,5.2449,5.2458,5.2612,5.2719,5.2714,5.3026,5.3029,5.3063,5.3087,5.317,5.3239,5.3266,0,0,5.2165,5.2163,5.2257,5.2234,5.2439,5.2415,5.2626,5.2748,5.2784,5.2945,5.2954,5.3069,5.309,5.3173,5.3422,5.3443,0,0,0,5.2296,5.2364,5.2424,5.2525,5.2622,5.2708,5.2801,5.2847,5.2986,5.2862,5.3122,5.3136,5.3185,5.322,5.3238,5.3282,5.3044,5.3043,5.3043,5.2471,5.2511,5.267,5.2738,5.2835,5.293,5.3012,5.3089,5.31,5.316,5.3209,5.3356,5.3395,5.3409,5.3455,5.3248,5.3249,5.3249,5.3249,5.2697,5.28,5.2811,5.2969,5.301,5.3142,5.3239,5.3242,5.3371,5.3322,5.3368,5.3312,5.343,5.3473,5.3253,5.3252,5.3252,5.3251,5.3251,5.2817,5.2873,5.2927,5.3076,5.3187,5.325,5.3374,5.3406,5.3436,5.3482,5.3537,5.3536,5.354,5.3505,5.3506,5.3506,5.3507,5.3507,5.3508,5.2921,5.298,5.3081,5.3196,5.3264,5.3359,5.3455,5.3524,5.3607,5.3621,5.3621,5.3626,5.3435,5.3386,5.3516,5.3514,5.3513,5.3512,5.3512,5.3137,5.3093,5.3249,5.3318,5.3455,5.3563,5.3602,5.3738,5.3799,5.3859,5.3854,5.3707,5.3707,5.3693,5.3654,5.3845,5.3845,5.3845,5.3845,5.3238,5.3241,5.3408,5.3517,5.3626,5.3677,5.3852,5.3928,5.3999,5.4039,5.4016,5.3966,5.395,5.3959,5.394,5.3903,5.4154,5.4154,5.4154,5.3373,5.3389,5.3532,5.3602,5.3712,5.3805,5.397,5.4093,5.4165,5.4168,5.4071,5.4058,5.3978,5.3949,5.395,5.3919,5.3853,0,0]}]]